Regional Weather Roundup
Issued by NWS

Home | Current Version | Previous Version | Text Only | Print | Product List | Glossary On
Versions: 1 2 3 4 5 6 7 8 9 10 11 12 13 14 15 16 17 18 19 20 21 22 23 24 25 26 27
000
ASUS45 KBOU 170107
RWRCO

WEATHER ROUNDUP FOR COLORADO
NATIONAL WEATHER SERVICE DENVER/BOULDER CO
600 PM MST MON JAN 16 2017

NOTE: "FAIR" INDICATES FEW OR NO CLOUDS BELOW 12000 FEET WITH NO
SIGNIFICANT WEATHER AND/OR OBSTRUCTIONS TO VISIBILITY.

COZ001>005-013-030-031-170200-
...NORTHWEST COLORADO...

CITY           SKY/WX    TMP DP  RH WIND       PRES   REMARKS
CRAIG          CLOUDY    16  11  80 E3        30.18R
HAYDEN         CLOUDY    16  10  79 CALM      30.15S
MEEKER         FAIR      23  15  71 NW6       30.14R WCI  16
MOUNT WERNER   NOT AVBL
STEAMBOAT SPGS CLOUDY    18  15  88 CALM      30.14R
WALDEN           N/A     21  18  86 NE5       30.11R WCI  15
$$

COZ006>008-011-170200-
...WEST CENTRAL VALLEYS...

CITY           SKY/WX    TMP DP  RH WIND       PRES   REMARKS
GRAND JUNCTION FAIR      34  25  69 NE7       30.09R WCI  28
MONTROSE       CLOUDY    34  23  64 NE3       30.11R
EAGLE          CLEAR     30  23  74 CALM      30.09R
RIFLE          FAIR      31  21  66 NW6       30.11R WCI  25
DELTA          CLOUDY    39  28  63 CALM      30.11R
NUCLA          FAIR      34  21  60 NW5       30.08S WCI  30
$$

COZ017>023-064>068-170200-
...SOUTHWEST COLORADO...

CITY           SKY/WX    TMP DP  RH WIND       PRES   REMARKS
DURANGO        LGT SNOW  32  30  92 E3        30.03R FOG
CORTEZ         MIX PCPN  34  33  96 S5        30.03R FOG     WCI  30
PAGOSA SPRINGS LGT SNOW  33  33  99 CALM      30.04R
TELLURIDE      LGT SNOW  26  24  93 W5        30.04R WCI  20
WOLF CREEK PAS CLOUDY    19  19 100 NW5       30.10R WCI  13
$$

COZ009-010-012-014-032>034-037-058>063-170200-
...CENTRAL COLORADO...

CITY           SKY/WX    TMP DP  RH WIND       PRES   REMARKS
ASPEN          FAIR      28  24  85 N3        30.05R
BUENA VISTA    LGT SNOW  31  29  94 E3        30.08R
COPPER MTN     CLOUDY    25  19  80 CALM      30.08R
BERTHOUD PASS  NOT AVBL
COTTONWOOD PAS LGT SNOW  30  27  86 CALM      30.08R
GUNNISON       LGT SNOW  28  26  92 NE3       30.06R FOG
KREMMLING      FAIR      27  21  80 CALM      30.09R
LEADVILLE      LGT SNOW  23  22  96 S7        30.04R FOG     WCI  15
MONARCH PASS   CLOUDY    19  18  93 MISG      30.16R
SALIDA         CLOUDY    32  31  96 SE5       30.15R WCI  27
SUNLIGHT       FAIR      19  18  93 NE7       30.11R FOG     WCI  10
WILKERSON PASS LGT SNOW N/A N/A N/A NE5       30.10R
$$

COZ069>075-170200-
...SAN LUIS VALLEY/SANGRE DE CRISTO MOUNTAINS...

CITY           SKY/WX    TMP DP  RH WIND       PRES   REMARKS
ALAMOSA        LGT SNOW  30  29  96 E9        30.04R FOG     WCI  22
LA VETA PASS   LGT SNOW  21  19  93 SW13G22   30.08R VSB 1   WCI   9
SAGUACHE       LGT SNOW  32  32 100 CALM      30.05R
$$

COZ035-036-038>040-170200-
...NORTHERN COLORADO FRONT RANGE...

CITY           SKY/WX    TMP DP  RH WIND       PRES   REMARKS
DENVER INTL AP CLOUDY    34  25  69 W5        30.11R WCI  30
DMNS CITY PARK   N/A     33  29  82 SE6       30.12R WCI  28
AURORA         CLOUDY    32  28  86 SW3       30.12R
FRONT RANGE AP MOCLDY    34  28  80 W6        30.12R WCI  29
ERIE MUNI ARPT CLOUDY    34  30  86 CALM      30.12R
BOULDER MUN AP CLOUDY    36  28  75 CALM      30.11R
CENTENNIAL     CLOUDY    31  25  78 SW5       30.11R WCI  26
BROOMFIELD     CLOUDY    36  27  69 CALM      30.12R
FORT COLLINS   CLOUDY    34  27  75 S5        30.12R WCI  30
LONGMONT       CLOUDY    37  31  80 CALM      30.14R
$$

COZ041-046-047-076>085-087-088-170200-
...PIKES PEAK/PALMER DIVIDE AND SOUTHERN FOOTHILLS...

CITY           SKY/WX    TMP DP  RH WIND       PRES   REMARKS
COLO. SPRINGS  CLOUDY    33  23  66 N16       30.11R WCI  23
A. F. ACADEMY  MIX PCPN  31  23  72 N8        30.10R WCI  23
SCHRIEVER AFB  NOT AVBL
ELLICOTT       CLOUDY   N/A N/A N/A N9        30.09R
FALCON         CLOUDY    30  22  74 NW8       30.10R WCI  22
FORT CARSON    NOT AVBL
LIMON          CLOUDY    30  27  88 NW9       30.09R WCI  22
MONUMENT HILL  CLOUDY    27  23  86 W7        30.11R WCI  19
TRINIDAD       SNOW      31  29  92 NW6       30.12R VSB 1/2 WCI  25
$$

COZ042>045-048>051-090-091-170200-
...NORTHEAST COLORADO...

CITY           SKY/WX    TMP DP  RH WIND       PRES   REMARKS
GREELEY ARPT   CLOUDY    34  24  67 SW6       30.12R WCI  29
AKRON          CLOUDY    32  22  66 NW8       30.08R WCI  25
BURLINGTON     FAIR      33  25  72 NW15      30.06R WCI  23
WRAY           NOT AVBL
STERLING       CLOUDY    34  27  75 N7        30.08S WCI  28
HOLYOKE        CLOUDY    37  30  75 NW10      30.08R
FORT MORGAN    CLOUDY    35  19  53 N8        30.10R WCI  28
$$

COZ086-089-092>099-170200-
...SOUTHEAST COLORADO...

CITY           SKY/WX    TMP DP  RH WIND       PRES   REMARKS
PUEBLO         CLOUDY    35  31  85 NE3       30.13R
LA JUNTA       LGT SNOW  34  31  88 NW10      30.13R FOG     WCI  26
LAMAR          LGT SNOW  32  31  96 W7        30.10R FOG     WCI  26
SPRINGFIELD      N/A     32  31  96 NW18      30.06R WCI  20
$$




USA.gov is the U.S. government's official web portal to all federal, state and local government web resources and services.